Time,TemperatureF,DewpointF,PressureIn,WindDirection,WindDirectionDegrees,WindSpeedMPH,WindSpeedGustMPH,Humidity,HourlyPrecipIn,Conditions,Clouds,dailyrainin,SoftwareType,DateUTC
2013-05-21 00:03:00,57.7,44.3,29.88,SSW,200,0.0,0.0,61,0.00,,,0.00,Wunderground v.1.15,2013-05-21 07:03:00,
2013-05-21 00:11:00,57.4,44.1,29.88,SSW,200,0.0,0.0,61,0.00,,,0.00,Wunderground v.1.15,2013-05-21 07:11:00,
2013-05-21 00:17:00,57.3,44.4,29.88,SSW,200,0.0,0.0,62,0.00,,,0.00,Wunderground v.1.15,2013-05-21 07:17:00,
2013-05-21 00:24:00,57.2,43.9,29.88,SSW,200,0.0,0.0,61,0.00,,,0.00,Wunderground v.1.15,2013-05-21 07:24:00,
2013-05-21 00:30:00,57.1,44.0,29.88,SSW,200,0.0,-999.0,61,-99.99,,,0.00,weatherlink.com 1.10,2013-05-21 07:30:00,
2013-05-21 00:35:00,57.0,43.2,29.87,SSW,200,0.0,0.0,60,0.00,,,0.00,Wunderground v.1.15,2013-05-21 07:35:00,
2013-05-21 00:42:00,57.1,42.5,29.87,SSW,200,0.0,0.0,58,0.00,,,0.00,Wunderground v.1.15,2013-05-21 07:42:00,
2013-05-21 00:47:00,57.2,42.5,29.87,SSW,200,0.0,0.0,58,0.00,,,0.00,Wunderground v.1.15,2013-05-21 07:47:00,
2013-05-21 00:53:00,57.2,42.5,29.87,SSW,200,0.0,0.0,58,0.00,,,0.00,Wunderground v.1.15,2013-05-21 07:53:00,
2013-05-21 01:02:00,57.3,42.0,29.86,SSW,200,0.0,-999.0,58,-99.99,,,0.00,weatherlink.com 1.10,2013-05-21 08:02:00,
2013-05-21 01:11:00,57.6,42.5,29.86,SSW,200,1.0,3.0,57,0.00,,,0.00,Wunderground v.1.15,2013-05-21 08:11:00,
2013-05-21 01:17:00,57.8,42.7,29.86,SSW,200,1.0,2.0,57,0.00,,,0.00,Wunderground v.1.15,2013-05-21 08:17:00,
2013-05-21 01:23:00,57.9,42.3,29.85,SSW,200,0.0,0.0,56,0.00,,,0.00,Wunderground v.1.15,2013-05-21 08:23:00,
2013-05-21 01:31:00,58.0,41.9,29.85,SSW,200,1.0,2.0,55,0.00,,,0.00,Wunderground v.1.15,2013-05-21 08:31:00,
2013-05-21 01:38:00,58.8,41.7,29.85,SSW,200,2.0,5.0,53,0.00,,,0.00,Wunderground v.1.15,2013-05-21 08:38:00,
2013-05-21 01:43:00,59.8,41.6,29.85,SSW,200,3.0,3.0,51,0.00,,,0.00,Wunderground v.1.15,2013-05-21 08:43:00,
2013-05-21 01:51:00,60.8,41.5,29.84,SSW,200,2.0,3.0,49,0.00,,,0.00,Wunderground v.1.15,2013-05-21 08:51:00,
2013-05-21 01:57:00,61.3,41.4,29.84,SSW,200,2.0,3.0,48,0.00,,,0.00,Wunderground v.1.15,2013-05-21 08:57:00,
2013-05-21 02:03:00,61.5,41.6,29.84,SSW,200,4.0,4.0,48,0.00,,,0.00,Wunderground v.1.15,2013-05-21 09:03:00,
2013-05-21 02:11:00,61.7,41.3,29.84,SSW,200,1.0,4.0,47,0.00,,,0.00,Wunderground v.1.15,2013-05-21 09:11:00,
2013-05-21 02:17:00,61.7,41.3,29.84,SSW,200,0.0,1.0,47,0.00,,,0.00,Wunderground v.1.15,2013-05-21 09:17:00,
2013-05-21 02:23:00,61.5,41.0,29.84,SSW,200,0.0,-999.0,47,-99.99,,,0.00,weatherlink.com 1.10,2013-05-21 09:23:00,
2013-05-21 02:32:00,61.3,40.9,29.83,SSW,200,0.0,2.0,47,0.00,,,0.00,Wunderground v.1.15,2013-05-21 09:32:00,
2013-05-21 02:37:00,61.2,40.8,29.83,SSW,200,0.0,0.0,47,0.00,,,0.00,Wunderground v.1.15,2013-05-21 09:37:00,
2013-05-21 02:43:00,61.2,40.8,29.83,SSW,200,0.0,3.0,47,0.00,,,0.00,Wunderground v.1.15,2013-05-21 09:43:00,
2013-05-21 02:51:00,61.1,40.7,29.83,SSW,200,0.0,3.0,47,0.00,,,0.00,Wunderground v.1.15,2013-05-21 09:51:00,
2013-05-21 02:58:00,61.1,40.7,29.83,SSW,200,0.0,0.0,47,0.00,,,0.00,Wunderground v.1.15,2013-05-21 09:58:00,
2013-05-21 03:03:00,61.2,40.8,29.83,SSW,200,0.0,1.0,47,0.00,,,0.00,Wunderground v.1.15,2013-05-21 10:03:00,
2013-05-21 03:11:00,61.4,41.0,29.83,SSW,200,2.0,2.0,47,0.00,,,0.00,Wunderground v.1.15,2013-05-21 10:11:00,
2013-05-21 03:17:00,61.4,41.0,29.83,SSW,200,1.0,2.0,47,0.00,,,0.00,Wunderground v.1.15,2013-05-21 10:17:00,
2013-05-21 03:24:00,61.2,41.9,29.83,SSW,200,0.0,0.0,49,0.00,,,0.00,Wunderground v.1.15,2013-05-21 10:24:00,
2013-05-21 03:33:00,60.7,41.9,29.83,SSW,200,0.0,0.0,50,0.00,,,0.00,Wunderground v.1.15,2013-05-21 10:33:00,
2013-05-21 03:41:00,60.2,42.5,29.82,SSW,200,0.0,0.0,52,0.00,,,0.00,Wunderground v.1.15,2013-05-21 10:41:00,
2013-05-21 03:47:00,59.9,42.7,29.82,SSW,200,0.0,0.0,53,0.00,,,0.00,Wunderground v.1.15,2013-05-21 10:47:00,
2013-05-21 03:53:00,59.4,42.7,29.82,SSW,200,0.0,0.0,54,0.00,,,0.00,Wunderground v.1.15,2013-05-21 10:53:00,
2013-05-21 04:01:00,58.8,43.0,29.82,SSW,200,0.0,-999.0,56,-99.99,,,0.00,weatherlink.com 1.10,2013-05-21 11:01:00,
2013-05-21 04:06:00,58.5,42.8,29.83,SSW,200,0.0,0.0,56,0.00,,,0.00,Wunderground v.1.15,2013-05-21 11:06:00,
2013-05-21 04:11:00,58.2,42.6,29.83,SSW,200,0.0,0.0,56,0.00,,,0.00,Wunderground v.1.15,2013-05-21 11:11:00,
2013-05-21 04:16:00,58.0,42.0,29.82,SSW,200,0.0,-999.0,56,-99.99,,,0.00,weatherlink.com 1.10,2013-05-21 11:16:00,
2013-05-21 04:21:00,57.8,41.7,29.82,SSW,200,0.0,0.0,55,0.00,,,0.00,Wunderground v.1.15,2013-05-21 11:21:00,
2013-05-21 04:27:00,57.9,41.3,29.82,SSW,200,1.0,4.0,54,0.00,,,0.00,Wunderground v.1.15,2013-05-21 11:27:00,
2013-05-21 04:32:00,58.2,41.0,29.82,SSW,200,0.0,-999.0,53,-99.99,,,0.00,weatherlink.com 1.10,2013-05-21 11:32:00,
2013-05-21 04:37:00,58.5,40.9,29.82,SSW,200,2.0,4.0,52,0.00,,,0.00,Wunderground v.1.15,2013-05-21 11:37:00,
2013-05-21 04:43:00,58.7,41.1,29.82,SSW,198,2.0,3.0,52,0.00,,,0.00,Wunderground v.1.15,2013-05-21 11:43:00,
2013-05-21 04:49:00,58.9,41.0,29.83,SSW,198,0.0,-999.0,52,-99.99,,,0.00,weatherlink.com 1.10,2013-05-21 11:49:00,
2013-05-21 04:55:00,59.0,41.4,29.83,South,182,1.0,3.0,52,0.00,,,0.00,Wunderground v.1.15,2013-05-21 11:55:00,
2013-05-21 05:02:00,59.3,41.2,29.83,SSE,157,3.0,4.0,51,0.00,,,0.00,Wunderground v.1.15,2013-05-21 12:02:00,
2013-05-21 05:08:00,59.4,41.3,29.83,SE,130,4.0,8.0,51,0.00,,,0.00,Wunderground v.1.15,2013-05-21 12:08:00,
2013-05-21 05:13:00,59.5,41.3,29.83,SE,128,4.0,6.0,51,0.00,,,0.00,Wunderground v.1.15,2013-05-21 12:13:00,
2013-05-21 05:21:00,59.5,42.0,29.83,SE,130,4.0,-999.0,52,-99.99,,,0.00,weatherlink.com 1.10,2013-05-21 12:21:00,
2013-05-21 05:27:00,59.5,41.9,29.82,SE,132,4.0,7.0,52,0.00,,,0.00,Wunderground v.1.15,2013-05-21 12:27:00,
2013-05-21 05:33:00,59.5,41.9,29.83,SE,133,4.0,4.0,52,0.00,,,0.00,Wunderground v.1.15,2013-05-21 12:33:00,
2013-05-21 05:39:00,59.5,42.0,29.82,SE,132,6.0,-999.0,52,-99.99,,,0.00,weatherlink.com 1.10,2013-05-21 12:39:00,
2013-05-21 05:47:00,59.5,42.3,29.83,SE,140,3.0,4.0,53,0.00,,,0.00,Wunderground v.1.15,2013-05-21 12:47:00,
2013-05-21 05:53:00,59.4,42.3,29.83,SE,140,2.0,4.0,53,0.00,,,0.00,Wunderground v.1.15,2013-05-21 12:53:00,
2013-05-21 06:01:00,59.3,42.2,29.83,SSE,157,3.0,3.0,53,0.00,,,0.00,Wunderground v.1.15,2013-05-21 13:01:00,
2013-05-21 06:07:00,59.2,42.1,29.84,SSE,155,2.0,6.0,53,0.00,,,0.00,Wunderground v.1.15,2013-05-21 13:07:00,
2013-05-21 06:17:00,59.1,42.0,29.84,SE,141,3.0,3.0,53,0.00,,,0.00,Wunderground v.1.15,2013-05-21 13:17:00,
2013-05-21 06:23:00,59.0,41.9,29.84,SE,124,4.0,4.0,53,0.00,,,0.00,Wunderground v.1.15,2013-05-21 13:23:00,
2013-05-21 06:31:00,58.9,41.8,29.84,SE,124,2.0,6.0,53,0.00,,,0.00,Wunderground v.1.15,2013-05-21 13:31:00,
2013-05-21 06:37:00,58.8,42.2,29.84,SE,124,2.0,6.0,54,0.00,,,0.00,Wunderground v.1.15,2013-05-21 13:37:00,
2013-05-21 06:43:00,58.7,42.1,29.85,SE,124,1.0,2.0,54,0.00,,,0.00,Wunderground v.1.15,2013-05-21 13:43:00,
2013-05-21 06:51:00,58.6,42.5,29.85,SE,124,1.0,1.0,55,0.00,,,0.00,Wunderground v.1.15,2013-05-21 13:51:00,
2013-05-21 06:57:00,58.6,42.5,29.86,SE,124,0.0,1.0,55,0.00,,,0.00,Wunderground v.1.15,2013-05-21 13:57:00,
2013-05-21 07:04:00,58.6,42.9,29.86,SE,124,0.0,0.0,56,0.00,,,0.00,Wunderground v.1.15,2013-05-21 14:04:00,
2013-05-21 07:11:00,58.7,43.0,29.86,SE,124,0.0,0.0,56,0.00,,,0.00,Wunderground v.1.15,2013-05-21 14:11:00,
2013-05-21 07:18:00,58.9,42.3,29.86,SE,124,3.0,5.0,54,0.00,,,0.00,Wunderground v.1.15,2013-05-21 14:18:00,
2013-05-21 07:23:00,58.9,42.3,29.86,SE,124,3.0,4.0,54,0.00,,,0.00,Wunderground v.1.15,2013-05-21 14:23:00,
2013-05-21 07:31:00,59.1,42.0,29.86,SE,124,0.0,-999.0,54,-99.99,,,0.00,weatherlink.com 1.10,2013-05-21 14:31:00,
2013-05-21 07:38:00,59.3,42.6,29.86,SE,124,1.0,2.0,54,0.00,,,0.00,Wunderground v.1.15,2013-05-21 14:38:00,
2013-05-21 07:43:00,59.5,41.9,29.86,SE,124,2.0,4.0,52,0.00,,,0.00,Wunderground v.1.15,2013-05-21 14:43:00,
2013-05-21 07:52:00,60.1,42.4,29.86,SE,124,2.0,4.0,52,0.00,,,0.00,Wunderground v.1.15,2013-05-21 14:52:00,
2013-05-21 07:57:00,60.4,42.2,29.86,SE,124,3.0,5.0,51,0.00,,,0.00,Wunderground v.1.15,2013-05-21 14:57:00,
2013-05-21 08:03:00,60.8,42.5,29.86,SE,124,2.0,6.0,51,0.00,,,0.00,Wunderground v.1.15,2013-05-21 15:03:00,
2013-05-21 08:11:00,61.1,42.3,29.86,SE,124,2.0,4.0,50,0.00,,,0.00,Wunderground v.1.15,2013-05-21 15:11:00,
2013-05-21 08:17:00,61.3,42.5,29.86,SE,124,2.0,5.0,50,0.00,,,0.00,Wunderground v.1.15,2013-05-21 15:17:00,
2013-05-21 08:23:00,61.4,43.1,29.86,ESE,123,2.0,2.0,51,0.00,,,0.00,Wunderground v.1.15,2013-05-21 15:23:00,
2013-05-21 08:31:00,61.6,43.3,29.87,SE,124,2.0,2.0,51,0.00,,,0.00,Wunderground v.1.15,2013-05-21 15:31:00,
2013-05-21 08:38:00,61.5,43.7,29.88,SE,124,1.0,2.0,52,0.00,,,0.00,Wunderground v.1.15,2013-05-21 15:38:00,
2013-05-21 08:44:00,61.8,44.5,29.88,SE,124,0.0,1.0,53,0.00,,,0.00,Wunderground v.1.15,2013-05-21 15:44:00,
2013-05-21 08:51:00,63.1,44.7,29.88,SE,130,2.0,6.0,51,0.00,,,0.00,Wunderground v.1.15,2013-05-21 15:51:00,
2013-05-21 08:57:00,64.3,44.2,29.87,ESE,117,4.0,9.0,48,0.00,,,0.00,Wunderground v.1.15,2013-05-21 15:57:00,
2013-05-21 09:03:00,65.0,44.8,29.87,ESE,123,6.0,6.0,48,0.00,,,0.00,Wunderground v.1.15,2013-05-21 16:03:00,
2013-05-21 09:11:00,65.9,46.2,29.86,SE,135,5.0,9.0,49,0.00,,,0.00,Wunderground v.1.15,2013-05-21 16:11:00,
2013-05-21 09:17:00,66.5,45.1,29.87,SE,135,5.0,5.0,46,0.00,,,0.00,Wunderground v.1.15,2013-05-21 16:17:00,
2013-05-21 09:23:00,67.1,45.0,29.87,SSE,165,5.0,5.0,45,0.00,,,0.00,Wunderground v.1.15,2013-05-21 16:23:00,
2013-05-21 09:39:00,68.8,44.0,29.86,SSE,152,8.0,-999.0,41,-99.99,,,0.00,weatherlink.com 1.10,2013-05-21 16:39:00,
2013-05-21 09:54:00,70.3,44.0,29.86,SE,135,6.0,-999.0,39,-99.99,,,0.00,weatherlink.com 1.10,2013-05-21 16:54:00,
2013-05-21 10:09:00,72.1,45.0,29.86,SW,228,6.0,-999.0,38,-99.99,,,0.00,weatherlink.com 1.10,2013-05-21 17:09:00,
2013-05-21 10:24:00,72.7,46.0,29.87,South,187,1.0,-999.0,38,-99.99,,,0.00,weatherlink.com 1.10,2013-05-21 17:24:00,
2013-05-21 10:39:00,73.1,47.0,29.87,SW,234,14.0,-999.0,39,-99.99,,,0.00,weatherlink.com 1.10,2013-05-21 17:39:00,
2013-05-21 10:55:00,72.9,46.0,29.88,SSW,209,3.0,-999.0,38,-99.99,,,0.00,weatherlink.com 1.10,2013-05-21 17:55:00,
2013-05-21 11:10:00,73.0,47.0,29.88,SSE,165,1.0,-999.0,39,-99.99,,,0.00,weatherlink.com 1.10,2013-05-21 18:10:00,
2013-05-21 11:25:00,73.4,48.0,29.88,South,175,8.0,-999.0,40,-99.99,,,0.00,weatherlink.com 1.10,2013-05-21 18:25:00,
2013-05-21 11:40:00,75.0,48.0,29.88,SSW,192,3.0,-999.0,38,-99.99,,,0.00,weatherlink.com 1.10,2013-05-21 18:40:00,
2013-05-21 11:55:00,75.5,49.0,29.88,SSW,194,5.0,-999.0,39,-99.99,,,0.00,weatherlink.com 1.10,2013-05-21 18:55:00,
2013-05-21 12:10:00,76.2,48.0,29.88,SSE,150,1.0,-999.0,37,-99.99,,,0.00,weatherlink.com 1.10,2013-05-21 19:10:00,
2013-05-21 12:24:00,77.5,48.0,29.87,South,188,2.0,-999.0,36,-99.99,,,0.00,weatherlink.com 1.10,2013-05-21 19:24:00,
2013-05-21 12:40:00,78.4,49.0,29.87,South,179,0.0,-999.0,35,-99.99,,,0.00,weatherlink.com 1.10,2013-05-21 19:40:00,
2013-05-21 12:54:00,79.1,48.0,29.87,SSW,208,2.0,-999.0,33,-99.99,,,0.00,weatherlink.com 1.10,2013-05-21 19:54:00,
2013-05-21 13:10:00,79.1,47.0,29.86,SSW,196,2.0,-999.0,32,-99.99,,,0.00,weatherlink.com 1.10,2013-05-21 20:10:00,
2013-05-21 13:26:00,79.8,47.0,29.86,SE,141,6.0,-999.0,31,-99.99,,,0.00,weatherlink.com 1.10,2013-05-21 20:26:00,
2013-05-21 13:40:00,80.6,44.0,29.86,South,178,1.0,-999.0,27,-99.99,,,0.00,weatherlink.com 1.10,2013-05-21 20:40:00,
2013-05-21 13:55:00,80.7,42.0,29.86,SW,216,1.0,-999.0,25,-99.99,,,0.00,weatherlink.com 1.10,2013-05-21 20:55:00,
2013-05-21 14:10:00,80.3,42.0,29.86,SSW,210,10.0,-999.0,26,-99.99,,,0.00,weatherlink.com 1.10,2013-05-21 21:10:00,
2013-05-21 14:25:00,81.8,43.0,29.85,SW,231,9.0,-999.0,25,-99.99,,,0.00,weatherlink.com 1.10,2013-05-21 21:25:00,
2013-05-21 14:40:00,81.8,43.0,29.85,SSW,203,6.0,-999.0,25,-99.99,,,0.00,weatherlink.com 1.10,2013-05-21 21:40:00,
2013-05-21 14:56:00,81.4,42.0,29.85,WSW,243,5.0,-999.0,25,-99.99,,,0.00,weatherlink.com 1.10,2013-05-21 21:56:00,
2013-05-21 15:10:00,81.4,41.0,29.84,SSE,155,2.0,-999.0,24,-99.99,,,0.00,weatherlink.com 1.10,2013-05-21 22:10:00,
2013-05-21 15:25:00,80.6,41.0,29.84,SSE,148,2.0,-999.0,24,-99.99,,,0.00,weatherlink.com 1.10,2013-05-21 22:25:00,
2013-05-21 15:40:00,81.4,40.0,29.84,SE,146,6.0,-999.0,23,-99.99,,,0.00,weatherlink.com 1.10,2013-05-21 22:40:00,
2013-05-21 15:55:00,81.2,42.0,29.84,SSE,165,6.0,-999.0,25,-99.99,,,0.00,weatherlink.com 1.10,2013-05-21 22:55:00,
2013-05-21 16:10:00,80.6,39.0,29.83,WSW,255,11.0,-999.0,23,-99.99,,,0.00,weatherlink.com 1.10,2013-05-21 23:10:00,
2013-05-21 16:25:00,80.5,42.0,29.83,South,182,5.0,-999.0,25,-99.99,,,0.00,weatherlink.com 1.10,2013-05-21 23:25:00,
2013-05-21 16:40:00,80.4,42.0,29.83,South,187,5.0,-999.0,26,-99.99,,,0.00,weatherlink.com 1.10,2013-05-21 23:40:00,
2013-05-21 16:55:00,79.6,42.0,29.83,SSW,200,1.0,-999.0,26,-99.99,,,0.00,weatherlink.com 1.10,2013-05-21 23:55:00,
2013-05-21 17:10:00,79.0,43.0,29.83,SSW,199,5.0,-999.0,28,-99.99,,,0.00,weatherlink.com 1.10,2013-05-22 00:10:00,
2013-05-21 17:25:00,78.7,43.0,29.83,South,191,7.0,-999.0,28,-99.99,,,0.00,weatherlink.com 1.10,2013-05-22 00:25:00,
2013-05-21 17:40:00,77.4,42.0,29.82,SSW,211,4.0,-999.0,28,-99.99,,,0.00,weatherlink.com 1.10,2013-05-22 00:40:00,
2013-05-21 17:50:00,76.9,42.2,29.83,SSW,195,4.0,4.0,29,0.00,,,0.00,Wunderground v.1.15,2013-05-22 00:50:00,
2013-05-21 17:55:00,76.7,42.9,29.82,South,190,4.0,4.0,30,0.00,,,0.00,Wunderground v.1.15,2013-05-22 00:55:00,
2013-05-21 18:04:00,76.6,43.7,29.82,South,182,2.0,2.0,31,0.00,,,0.00,Wunderground v.1.15,2013-05-22 01:04:00,
2013-05-21 18:11:00,76.4,41.8,29.82,SW,214,2.0,3.0,29,0.00,,,0.00,Wunderground v.1.15,2013-05-22 01:11:00,
2013-05-21 18:17:00,75.0,42.3,29.82,South,178,4.0,8.0,31,0.00,,,0.00,Wunderground v.1.15,2013-05-22 01:17:00,
2013-05-21 18:23:00,74.3,43.3,29.82,SSW,198,4.0,4.0,33,0.00,,,0.00,Wunderground v.1.15,2013-05-22 01:23:00,
2013-05-21 18:33:00,73.0,43.0,29.82,South,182,3.0,3.0,34,0.00,,,0.00,Wunderground v.1.15,2013-05-22 01:33:00,
2013-05-21 18:41:00,72.3,43.1,29.82,SE,135,2.0,5.0,35,0.00,,,0.00,Wunderground v.1.15,2013-05-22 01:41:00,
2013-05-21 18:47:00,71.9,44.2,29.83,SSW,203,2.0,2.0,37,0.00,,,0.00,Wunderground v.1.15,2013-05-22 01:47:00,
2013-05-21 18:53:00,71.4,44.5,29.83,SSE,161,3.0,3.0,38,0.00,,,0.00,Wunderground v.1.15,2013-05-22 01:53:00,
2013-05-21 19:01:00,70.7,45.8,29.83,SW,215,3.0,6.0,41,0.00,,,0.00,Wunderground v.1.15,2013-05-22 02:01:00,
2013-05-21 19:07:00,70.3,46.1,29.83,South,181,3.0,6.0,42,0.00,,,0.00,Wunderground v.1.15,2013-05-22 02:07:00,
2013-05-21 19:13:00,69.6,46.1,29.83,SW,221,3.0,3.0,43,0.00,,,0.00,Wunderground v.1.15,2013-05-22 02:13:00,
2013-05-21 19:21:00,68.9,46.1,29.83,South,175,2.0,5.0,44,0.00,,,0.00,Wunderground v.1.15,2013-05-22 02:21:00,
2013-05-21 19:27:00,68.3,46.1,29.83,SW,220,3.0,5.0,45,0.00,,,0.00,Wunderground v.1.15,2013-05-22 02:27:00,
2013-05-21 19:33:00,67.8,46.3,29.83,South,180,2.0,2.0,46,0.00,,,0.00,Wunderground v.1.15,2013-05-22 02:33:00,
2013-05-21 19:41:00,67.2,46.3,29.83,SSW,194,2.0,6.0,47,0.00,,,0.00,Wunderground v.1.15,2013-05-22 02:41:00,
2013-05-21 19:47:00,66.7,45.8,29.83,South,183,3.0,6.0,47,0.00,,,0.00,Wunderground v.1.15,2013-05-22 02:47:00,
2013-05-21 19:54:00,66.2,45.9,29.83,South,174,2.0,2.0,48,0.00,,,0.00,Wunderground v.1.15,2013-05-22 02:54:00,
2013-05-21 20:03:00,65.4,45.7,29.83,SSE,168,2.0,2.0,49,0.00,,,0.00,Wunderground v.1.15,2013-05-22 03:03:00,
2013-05-21 20:11:00,64.9,45.8,29.83,South,175,1.0,4.0,50,0.00,,,0.00,Wunderground v.1.15,2013-05-22 03:11:00,
2013-05-21 20:17:00,64.4,45.9,29.83,South,176,2.0,7.0,51,0.00,,,0.00,Wunderground v.1.15,2013-05-22 03:17:00,
2013-05-21 20:23:00,63.9,45.4,29.83,SSE,155,2.0,2.0,51,0.00,,,0.00,Wunderground v.1.15,2013-05-22 03:23:00,
2013-05-21 20:29:00,63.4,45.0,29.84,SE,130,0.0,-999.0,52,-99.99,,,0.00,weatherlink.com 1.10,2013-05-22 03:29:00,
2013-05-21 20:35:00,62.9,45.5,29.84,SE,126,1.0,5.0,53,0.00,,,0.00,Wunderground v.1.15,2013-05-22 03:35:00,
2013-05-21 20:41:00,62.6,45.7,29.84,SE,143,2.0,5.0,54,0.00,,,0.00,Wunderground v.1.15,2013-05-22 03:41:00,
2013-05-21 20:46:00,62.3,46.0,29.84,SE,128,1.0,-999.0,55,-99.99,,,0.00,weatherlink.com 1.10,2013-05-22 03:46:00,
2013-05-21 20:51:00,62.0,45.6,29.84,ESE,114,1.0,5.0,55,0.00,,,0.00,Wunderground v.1.15,2013-05-22 03:51:00,
2013-05-21 20:57:00,61.6,45.7,29.84,SSE,150,2.0,2.0,56,0.00,,,0.00,Wunderground v.1.15,2013-05-22 03:57:00,
2013-05-21 21:01:00,61.4,45.0,29.84,SSE,154,0.0,-999.0,56,-99.99,,,0.00,weatherlink.com 1.10,2013-05-22 04:01:00,
2013-05-21 21:03:00,61.3,45.9,29.84,SSE,157,2.0,2.0,57,0.00,,,0.00,Wunderground v.1.15,2013-05-22 04:03:00,
2013-05-21 21:05:00,61.2,45.8,29.84,SSE,155,1.0,2.0,57,0.00,,,0.00,Wunderground v.1.15,2013-05-22 04:05:00,
2013-05-21 21:11:00,60.9,45.6,29.84,SSE,152,1.0,1.0,57,0.00,,,0.00,Wunderground v.1.15,2013-05-22 04:11:00,
2013-05-21 21:13:00,60.8,45.5,29.85,SSE,151,1.0,4.0,57,0.00,,,0.00,Wunderground v.1.15,2013-05-22 04:13:00,
2013-05-21 21:21:00,60.3,45.5,29.85,SSE,153,1.0,1.0,58,0.00,,,0.00,Wunderground v.1.15,2013-05-22 04:21:00,
2013-05-21 21:27:00,60.0,46.1,29.85,SSE,157,2.0,5.0,60,0.00,,,0.00,Wunderground v.1.15,2013-05-22 04:27:00,
2013-05-21 21:33:00,59.7,45.8,29.85,SE,144,2.0,2.0,60,0.00,,,0.00,Wunderground v.1.15,2013-05-22 04:33:00,
2013-05-21 21:41:00,59.4,45.9,29.85,ESE,119,1.0,1.0,61,0.00,,,0.00,Wunderground v.1.15,2013-05-22 04:41:00,
2013-05-21 21:47:00,59.0,45.6,29.85,ESE,117,2.0,5.0,61,0.00,,,0.00,Wunderground v.1.15,2013-05-22 04:47:00,
2013-05-21 21:53:00,58.7,45.7,29.85,SE,140,2.0,9.0,62,0.00,,,0.00,Wunderground v.1.15,2013-05-22 04:53:00,
2013-05-21 22:01:00,58.4,45.8,29.85,SE,134,1.0,1.0,63,0.00,,,0.00,Wunderground v.1.15,2013-05-22 05:01:00,
2013-05-21 22:07:00,58.2,45.7,29.86,SE,137,3.0,7.0,63,0.00,,,0.00,Wunderground v.1.15,2013-05-22 05:07:00,
2013-05-21 22:13:00,57.9,45.8,29.86,ESE,123,4.0,6.0,64,0.00,,,0.00,Wunderground v.1.15,2013-05-22 05:13:00,
2013-05-21 22:23:00,57.5,45.8,29.86,SSE,166,1.0,1.0,65,0.00,,,0.00,Wunderground v.1.15,2013-05-22 05:23:00,
2013-05-21 22:31:00,57.2,45.5,29.87,SSE,167,0.0,0.0,65,0.00,,,0.00,Wunderground v.1.15,2013-05-22 05:31:00,
2013-05-21 22:37:00,57.0,45.3,29.87,ESE,123,1.0,1.0,65,0.00,,,0.00,Wunderground v.1.15,2013-05-22 05:37:00,
2013-05-21 22:43:00,56.7,45.5,29.87,SE,124,1.0,2.0,66,0.00,,,0.00,Wunderground v.1.15,2013-05-22 05:43:00,
2013-05-21 22:49:00,56.5,45.0,29.87,SE,127,0.0,-999.0,66,-99.99,,,0.00,weatherlink.com 1.10,2013-05-22 05:49:00,
2013-05-21 22:55:00,56.2,45.0,29.87,SE,127,2.0,2.0,66,0.00,,,0.00,Wunderground v.1.15,2013-05-22 05:55:00,
2013-05-21 23:01:00,55.9,45.1,29.87,SE,125,1.0,1.0,67,0.00,,,0.00,Wunderground v.1.15,2013-05-22 06:01:00,
2013-05-21 23:07:00,55.7,44.9,29.87,SE,126,1.0,2.0,67,0.00,,,0.00,Wunderground v.1.15,2013-05-22 06:07:00,
2013-05-21 23:13:00,55.5,44.7,29.87,SE,126,1.0,1.0,67,0.00,,,0.00,Wunderground v.1.15,2013-05-22 06:13:00,
2013-05-21 23:19:00,55.3,44.0,29.88,SE,126,0.0,-999.0,67,-99.99,,,0.00,weatherlink.com 1.10,2013-05-22 06:19:00,
2013-05-21 23:25:00,55.1,44.7,29.88,SE,126,0.0,0.0,68,0.00,,,0.00,Wunderground v.1.15,2013-05-22 06:25:00,
2013-05-21 23:33:00,54.6,44.6,29.88,SE,126,0.0,0.0,69,0.00,,,0.00,Wunderground v.1.15,2013-05-22 06:33:00,
2013-05-21 23:41:00,54.2,44.6,29.88,SE,126,0.0,0.0,70,0.00,,,0.00,Wunderground v.1.15,2013-05-22 06:41:00,
2013-05-21 23:47:00,53.7,44.1,29.88,SE,126,0.0,0.0,70,0.00,,,0.00,Wunderground v.1.15,2013-05-22 06:47:00,
2013-05-21 23:53:00,53.4,44.2,29.88,SE,126,0.0,0.0,71,0.00,,,0.00,Wunderground v.1.15,2013-05-22 06:53:00,